Location: Unspecified
(0.0000°N, 0.0000°E)
Time: 09:12:14
(UTC+00:00)

Courier 1B - All Passes

Search period start: 25 May 2016 00:00
Search period end: 04 June 2016 00:00
Orbit: 963 x 1209 km, 28.3° (Epoch: 23 May)

Date Brightness Start Highest point End Pass type
(mag) Time Alt. Az. Time Alt. Az. Time Alt. Az.
25 May - 01:06:44 10° WNW 01:14:11 48° SSW 01:21:43 10° SE night (unlit)
25 May - 03:04:37 10° WSW 03:09:13 16° SSW 03:13:47 10° SSE visible
25 May - 08:55:29 10° S 08:58:39 13° SSE 09:01:44 10° SE daylight
25 May - 10:47:03 10° SW 10:53:26 43° SSE 10:59:33 10° E daylight
25 May - 12:41:08 10° WSW 12:47:28 51° NNW 12:53:43 10° NE daylight
25 May - 14:38:38 10° NW 14:41:56 14° NNW 14:45:15 10° N daylight
25 May - 20:27:47 10° N 20:30:45 13° NNE 20:33:47 10° NE visible
25 May - 22:18:48 10° NW 22:25:42 40° NNE 22:32:55 10° E visible
26 May - 00:12:32 10° WNW 00:20:09 65° SSW 00:27:59 10° SE night (unlit)
26 May - 02:09:15 10° WSW 02:14:59 22° SSW 02:20:43 10° SSE night (unlit)
26 May - 08:03:51 10° SSE 08:04:26 10° SSE 08:05:01 10° SSE daylight
26 May - 09:53:35 10° SSW 09:59:36 31° SSE 10:05:20 10° E daylight
26 May - 11:47:05 10° WSW 11:53:45 73° NNW 12:00:12 10° NE daylight
26 May - 13:43:26 10° WNW 13:47:59 20° NNW 13:52:30 10° NNE daylight
26 May - 21:25:30 10° NNW 21:31:43 30° NNE 21:38:12 10° E visible
26 May - 23:18:35 10° WNW 23:26:10 87° SSW 23:34:05 10° ESE night (unlit)
27 May - 01:14:19 10° W 01:20:49 29° SSW 01:27:25 10° SSE night (unlit)
27 May - 09:00:12 10° SSW 09:05:39 23° SSE 09:10:53 10° ESE daylight
27 May - 10:53:11 10° WSW 11:00:02 81° SSE 11:06:33 10° ENE daylight
27 May - 12:48:39 10° W 12:54:06 27° NNW 12:59:30 10° NNE daylight
27 May - 20:32:27 10° NNW 20:37:42 21° NNE 20:43:09 10° ENE visible
27 May - 22:24:51 10° NW 22:32:13 70° NNE 22:39:58 10° ESE visible
28 May - 00:19:43 10° W 00:26:43 38° SSW 00:33:54 10° SE night (unlit)
28 May - 02:18:35 10° SW 02:22:01 13° SSW 02:25:29 10° S night (unlit)
28 May - 08:06:57 10° SSW 08:11:36 18° SSE 08:16:05 10° ESE daylight
28 May - 09:59:24 10° SW 10:06:16 58° SSE 10:12:44 10° ENE daylight
28 May - 11:54:09 10° W 12:00:20 38° NNW 12:06:18 10° NE daylight
28 May - 13:53:30 10° NW 13:54:58 11° NNW 13:56:26 10° N daylight
28 May - 19:39:43 10° N 19:43:38 15° NNE 19:47:39 10° ENE visible
28 May - 21:31:18 10° NW 21:38:17 51° NNE 21:45:41 10° ESE visible
28 May - 23:25:26 10° WNW 23:32:41 51° SSW 23:40:15 10° SE night (unlit)
29 May - 01:22:52 10° WSW 01:27:43 17° SSW 01:32:36 10° SSE night (unlit)
29 May - 07:13:55 10° S 07:17:26 14° SSE 07:20:52 10° SE daylight
29 May - 09:05:44 10° SW 09:12:25 42° SSE 09:18:44 10° E daylight
29 May - 10:59:52 10° WSW 11:06:34 55° NNW 11:12:57 10° NE daylight
29 May - 12:57:17 10° WNW 13:00:57 15° NNW 13:04:34 10° N daylight
29 May - 18:47:58 10° N 18:49:30 11° NNE 18:51:03 10° NE visible
29 May - 20:37:57 10° NW 20:44:22 37° NNE 20:51:09 10° E visible
29 May - 22:31:23 10° WNW 22:38:42 69° SSW 22:46:26 10° SE visible
30 May - 00:27:43 10° WSW 00:33:29 23° SSW 00:39:23 10° SSE night (unlit)
30 May - 06:21:35 10° S 06:23:08 11° SSE 06:24:41 10° SSE daylight
30 May - 08:12:10 10° SSW 08:18:30 31° SSE 08:24:29 10° E daylight
30 May - 10:05:45 10° WSW 10:12:48 78° NNW 10:19:27 10° NE daylight
30 May - 12:02:04 10° WNW 12:07:01 21° NNW 12:11:50 10° NNE daylight
30 May - 19:44:48 10° NNW 19:50:27 26° NNE 19:56:22 10° E visible
30 May - 21:37:35 10° WNW 21:44:46 88° NNE 21:52:27 10° ESE visible
30 May - 23:32:58 10° W 23:39:20 30° SSW 23:45:58 10° SSE night (unlit)
31 May - 01:33:29 10° SSW 01:34:55 11° SSW 01:36:22 10° S night (unlit)
31 May - 07:18:42 10° SSW 07:24:28 24° SSE 07:29:58 10° ESE daylight
31 May - 09:11:47 10° SW 09:19:01 77° SSE 09:25:48 10° ENE daylight
31 May - 11:07:16 10° W 11:13:10 30° NNW 11:18:50 10° NNE daylight
31 May - 18:51:55 10° NNW 18:56:30 19° NNE 19:01:14 10° ENE visible
31 May - 20:43:58 10° NW 20:50:54 65° NNE 20:58:18 10° ESE visible
31 May - 22:38:33 10° W 22:45:17 39° SSW 22:52:22 10° SE night (unlit)
01 Jun - 00:36:55 10° SW 00:40:31 14° SSW 00:44:11 10° S night (unlit)
01 Jun - 06:25:23 10° SSW 06:30:20 18° SSE 06:35:06 10° ESE daylight
01 Jun - 08:17:56 10° SW 08:25:10 56° SSE 08:31:56 10° ENE daylight
01 Jun - 10:12:42 10° W 10:19:21 42° NNW 10:25:38 10° NE daylight
01 Jun - 12:11:32 10° NW 12:13:57 12° NNW 12:16:19 10° N daylight
01 Jun - 17:59:27 10° N 18:02:29 13° NNE 18:05:33 10° NE daylight
01 Jun - 19:50:32 10° NW 19:57:03 46° NNE 20:03:59 10° ESE visible
01 Jun - 21:44:23 10° WNW 21:51:18 53° SSW 21:58:40 10° SE visible
01 Jun - 23:41:28 10° WSW 23:46:14 18° SSW 23:51:09 10° SSE night (unlit)
02 Jun - 05:32:18 10° S 05:36:04 14° SSE 05:39:47 10° SE visible
02 Jun - 07:24:12 10° SW 07:31:14 41° SSE 07:37:51 10° E daylight
02 Jun - 09:18:22 10° WSW 09:25:32 60° NNW 09:32:15 10° NE daylight
02 Jun - 11:15:39 10° WNW 11:19:55 17° NNW 11:24:05 10° NNE daylight
02 Jun - 18:57:18 10° NNW 19:03:12 33° NNE 19:09:27 10° E visible
02 Jun - 20:50:29 10° WNW 20:57:24 72° SSW 21:04:49 10° SE visible
02 Jun - 22:46:30 10° WSW 22:52:03 23° SSW 22:57:51 10° SSE night (unlit)
03 Jun - 04:39:50 10° S 04:41:43 11° SSE 04:43:35 10° SSE visible
03 Jun - 06:30:36 10° SSW 06:37:13 31° SSE 06:43:31 10° E daylight
03 Jun - 08:24:12 10° WSW 08:31:42 83° NNW 08:38:41 10° ENE daylight
03 Jun - 10:20:27 10° W 10:25:59 24° NNW 10:31:17 10° NNE daylight
03 Jun - 18:04:14 10° NNW 18:09:20 23° NNE 18:14:38 10° ENE daylight
03 Jun - 19:56:46 10° WNW 20:03:34 83° NNE 20:10:51 10° ESE visible
03 Jun - 21:51:54 10° W 21:57:59 30° SSW 22:04:23 10° SSE visible
03 Jun - 23:52:03 10° SSW 23:53:27 11° SSW 23:54:51 10° S night (unlit)
